Location: Oberkirch
(48.5323°N, 8.0787°E)
Time: 16:28:30
(UTC+00:00)

CUTE 1.7 + AOD 2 - Visible Passes

Search period start: 14 March 2026 00:00
Search period end: 24 March 2026 00:00
Orbit: 535 x 547 km, 97.8° (Epoch: 14 March)

Date Brightness Start Highest point End Pass type
(mag) Time Alt. Az. Time Alt. Az. Time Alt. Az.
14 Mar ? 02:45:18 10° ENE 02:47:14 13° E 02:49:09 10° ESE visible
14 Mar ? 04:18:15 10° N 04:22:09 61° WNW 04:26:02 10° SSW visible
15 Mar ? 02:38:53 10° ENE 02:40:03 11° E 02:41:13 10° ESE visible
15 Mar ? 04:11:08 10° N 04:15:04 74° WNW 04:18:59 10° SSW visible
16 Mar ? 04:04:01 10° NNE 04:07:59 88° W 04:11:54 10° SSW visible
17 Mar ? 03:56:54 10° NNE 04:00:51 77° ESE 04:04:46 10° S visible
18 Mar ? 03:49:46 10° NNE 03:53:42 64° ESE 03:57:35 10° S visible
19 Mar ? 03:42:39 10° NNE 03:46:31 52° E 03:50:22 10° S visible
20 Mar ? 03:35:33 10° NNE 03:39:20 43° E 03:43:06 10° S visible
21 Mar ? 03:28:26 10° NNE 03:32:07 36° E 03:35:46 10° SSE visible
22 Mar ? 03:21:21 10° NNE 03:24:53 30° E 03:28:23 10° SSE visible
22 Mar ? 04:56:00 10° N 04:59:19 26° WNW 05:02:37 10° WSW visible
23 Mar ? 03:14:16 10° NE 03:17:36 26° E 03:20:55 10° SSE visible
23 Mar ? 04:48:39 10° N 04:52:09 31° WNW 04:55:37 10° SW visible
